Weather in Velsao

India     15°22′22″N   73°53′25″E
temp.,
°C
wind,
m/s
gust,
m/s
humid.,
%
clouds,
%
prec.,
mm/h
press.,
hPa
HPBL,
m
28 february, sun
sun2823:30+24nnw12810 0.0 100968
02:30+22ne01830 0.0 100846
05:30+22ese11790 0.0 100736
08:30+28sse11400 0.0 1010138
11:30+37sw34230 0.0 10101751
14:30+35wsw66330 0.0 10061420
17:30+31wsw34500 0.0 1006550
20:30+25n11800 0.0 100935
1 march, mon
mon123:30+24ese12814 0.0 101131
02:30+23ese118124 0.0 100936
05:30+21ese118523 0.0 100945
08:30+26ese236410 0.0 1013252
11:30+33ssw43455 0.0 10131270
14:30+32sw66560 0.0 1009823
17:30+29sw34650 0.0 1009753
20:30+25w11860 0.0 101295
2 march, tue
tue223:30+24e11904 0.0 101237
02:30+23ese22940 0.0 101149
05:30+22e12940 0.0 101041
08:30+27ne01690 0.0 1013208
11:30+36sw22360 0.0 1013983
14:30+32wsw66520 0.0 1009594
17:30+30wsw34602 0.0 1008542
20:30+25nnw11820 0.0 101071
3 march, wed
wed323:30+24ne11860 0.0 101155
02:30+22s01900 0.0 100937
05:30+22se12900 0.0 100844
08:30+27se11640 0.0 1011233
11:30+35sw23390 0.0 1011901
14:30+33wsw55510 0.0 1007558
17:30+30w33570 0.0 1006483
20:30+24ne11810 0.0 100964
4 march, thu
thu423:30+23e12820 0.0 100938
02:30+23se11800 0.0 100835
05:30+22sse127815 0.0 100858
08:30+27se125694 0.0 1011256
11:30+33ssw554491 0.0 1012828
14:30+32sw675534 0.0 1008755
17:30+29sw456617 0.0 1008725
20:30+25sse11851 0.0 101098